Dewpoint
70 67 67 68 69 69 65 61 57 62 60 56 57 60 59 63 64 62 60 63 60 62 60 58 57 57 61 58 58 59 60 57 58 50 55 65 69 69 69 69 71 71 72 72 73 74 74 75 76 76 77 76 76 76 76 76 76 76 76 76 76 76 76 76 76 76 76 76 76 76 75 75 75 75 75 75 75 75 75 75 76 75 76 75 76 75 75 75 75 75 75 76 75 75 75 76 75
66 63 66 67 67 64 62 61 57 58 59 55 58 61 60 62 63 58 59 62 62 62 59 60 57 56 60 61 59 60 61 63 63 63 64 66 68 68 68 70 70 70 71 71 72 72 72 74 76 76 77 77 77 76 76 76 76 76 76 76 76 76 76 76 76 76 76 76 76 76 76 75 75 75 75 75 75 75 75 75 75 75 75 75 75 75 76 75 75 75 76 76 76 76 75 76 76
64 64 65 65 62 62 67 66 57 56 54 54 58 61 62 59 60 58 62 63 61 61 59 57 57 58 58 59 58 59 60 63 63 64 65 67 67 68 69 69 70 69 70 71 71 72 73 74 75 76 77 77 77 76 76 76 76 76 76 76 76 76 76 76 76 76 76 75 75 75 75 75 76 76 75 75 75 75 75 75 75 75 75 75 75 75 75 75 75 75 76 76 76 76 75 76 76
71 70 67 60 59 62 59 62 59 57 54 54 56 61 62 59 58 62 65 64 60 57 56 57 61 63 59 58 58 61 61 62 63 65 66 67 67 67 67 69 71 69 69 70 71 72 73 74 75 76 76 76 77 76 76 77 76 76 76 76 76 76 76 76 76 76 75 75 75 75 75 76 76 75 75 75 75 75 75 75 75 75 75 74 75 75 75 75 75 75 76 75 75 75 75 76 76
70 72 66 62 61 64 63 60 60 59 53 57 56 62 60 61 63 63 64 62 58 61 59 60 58 60 61 60 59 60 61 63 64 65 65 66 67 67 68 68 69 69 69 70 71 72 73 75 75 76 76 76 76 76 77 77 77 77 76 76 76 76 75 75 75 75 75 75 75 75 75 75 75 75 74 75 75 75 75 74 75 75 75 75 75 75 75 75 75 75 76 76 75 75 74 75 76
70 70 65 63 64 72 66 58 58 56 60 62 57 59 61 62 63 64 63 60 61 58 60 60 58 57 56 56 59 60 62 62 63 64 65 65 67 68 68 69 69 70 70 70 71 72 73 75 75 76 76 76 76 77 77 77 76 76 76 76 76 75 75 75 75 75 75 75 75 75 75 75 74 74 74 74 75 74 74 74 74 75 75 75 74 75 75 75 75 75 76 75 75 74 75 75 75
67 62 62 62 64 65 57 57 57 59 61 62 60 62 61 61 62 62 60 59 61 62 64 59 57 57 57 58 58 60 63 64 64 63 65 66 67 68 69 68 70 70 69 70 71 72 73 76 76 76 77 76 76 77 77 77 77 76 76 76 76 76 75 75 74 74 75 75 74 74 75 75 75 74 74 75 75 74 74 74 74 74 75 75 75 74 74 74 75 75 75 75 75 75 75 75 75
64 63 70 66 61 64 59 58 59 57 62 63 61 61 63 63 62 60 59 60 59 60 62 62 59 58 57 58 58 60 63 64 63 65 65 65 66 68 67 68 68 70 69 70 71 73 76 76 76 76 76 76 76 77 77 76 76 76 76 76 76 75 75 75 75 75 75 75 75 75 75 75 75 75 75 74 75 74 75 74 74 75 75 74 75 74 74 74 74 75 75 75 75 75 75 76 76
63 64 68 63 59 61 59 59 59 60 62 63 62 64 65 64 62 60 60 62 63 61 60 59 57 56 57 58 59 61 64 64 64 66 66 67 67 67 67 68 68 69 69 70 72 74 75 77 76 76 76 76 76 77 77 76 76 76 76 76 76 76 75 75 75 75 75 74 74 75 75 75 75 75 74 74 75 74 74 74 75 75 75 75 74 74 74 75 75 75 75 75 75 75 75 75 75
63 64 65 61 59 56 59 59 59 59 61 62 62 64 65 64 62 62 61 63 62 61 59 60 57 59 59 58 59 60 62 64 65 65 66 67 67 66 66 67 68 69 69 70 72 72 74 77 77 76 76 76 77 77 77 76 75 76 75 75 75 75 75 75 75 74 75 75 75 75 75 75 75 75 75 74 74 75 74 74 75 74 74 74 75 74 74 74 74 75 75 75 75 75 75 75 74
63 64 65 60 58 58 56 57 59 61 61 64 64 66 67 65 63 63 62 65 65 61 60 59 59 58 59 60 60 62 63 64 64 65 66 66 67 67 67 68 69 69 68 69 70 72 73 75 77 76 76 77 77 76 76 76 76 76 75 75 75 75 75 75 74 74 75 74 75 75 75 75 75 75 74 74 74 74 73 74 74 74 75 75 74 74 74 74 74 74 74 75 74 74 74 74 74
60 65 65 58 58 56 57 57 58 61 62 63 63 66 67 65 65 63 64 63 61 61 59 59 59 60 59 59 60 61 61 62 62 64 65 66 67 68 68 68 68 68 68 68 69 69 72 75 75 77 76 76 76 76 75 75 76 76 75 75 75 75 75 75 74 75 75 75 75 75 75 75 75 74 75 75 74 74 74 74 74 75 75 75 75 75 75 74 74 74 74 74 74 74 74 74 74
63 66 62 60 58 60 56 58 59 60 60 62 62 66 66 65 64 64 64 63 61 61 61 62 59 60 59 60 61 60 59 60 61 62 62 63 66 67 68 67 67 68 67 67 67 68 70 72 73 74 75 76 76 76 75 75 76 76 75 75 75 75 75 75 75 74 74 75 75 75 75 75 75 75 75 75 75 74 74 73 74 74 74 75 75 75 75 75 75 74 74 74 74 74 74 74 74
63 65 65 57 62 59 58 58 60 59 59 63 65 66 66 66 65 66 66 62 62 63 63 61 59 62 60 60 60 59 59 60 60 60 60 61 65 67 67 67 67 68 67 66 66 67 69 70 71 73 74 74 75 75 75 75 76 75 75 75 75 75 75 74 74 74 74 75 75 75 75 74 75 75 75 75 75 74 74 74 74 74 75 75 75 75 75 75 75 75 74 73 73 74 75 74 74
63 65 62 60 58 56 60 57 57 58 60 64 66 66 66 67 66 65 65 63 64 64 62 61 60 60 58 58 59 59 59 60 60 60 60 61 63 66 66 66 66 66 67 65 65 66 67 69 69 73 74 74 75 75 75 75 75 75 75 74 74 75 75 74 74 75 75 75 75 75 75 75 75 75 75 75 75 74 74 74 74 74 74 74 74 75 75 74 74 74 74 74 74 75 75 75 74
63 61 63 59 56 56 59 60 61 59 59 64 66 66 66 67 68 66 67 68 64 62 62 60 59 61 59 58 58 59 59 59 60 60 61 62 63 63 65 65 64 65 65 65 65 66 67 68 70 71 71 73 74 74 74 74 74 75 75 75 75 75 75 75 75 75 75 75 75 75 75 75 74 74 76 74 75 74 74 73 74 75 75 74 74 74 74 74 74 74 75 75 75 75 75 75 74
61 63 58 58 56 56 58 59 60 58 62 64 66 66 63 65 68 68 70 70 63 62 65 60 59 58 58 58 59 59 59 60 62 61 61 63 63 64 64 64 64 64 64 65 67 68 67 68 70 70 71 72 72 73 74 74 74 75 74 75 75 75 75 75 75 75 75 75 75 74 74 74 75 75 74 73 75 73 75 74 75 75 75 75 75 75 75 75 74 74 75 75 76 76 75 75 75
61 59 57 58 56 57 60 59 59 62 62 64 65 65 64 63 66 67 68 67 65 64 65 61 58 57 59 59 60 60 59 60 61 61 61 61 63 62 64 65 64 65 67 68 69 69 70 70 70 70 71 72 72 73 73 74 75 74 74 74 74 74 75 75 75 75 76 75 75 75 75 75 75 75 74 74 74 75 75 75 75 75 75 74 74 74 75 75 75 74 74 75 76 76 75 74 75
58 61 59 58 58 62 62 61 63 62 61 65 65 65 64 64 66 67 65 64 64 63 63 62 59 57 59 59 59 59 59 60 60 61 61 61 61 60 63 66 66 67 68 69 69 69 71 72 71 69 72 72 71 71 73 74 74 75 74 74 74 75 75 75 75 75 75 75 75 75 76 75 75 75 75 74 74 75 75 75 75 75 75 74 74 75 75 75 75 75 75 75 76 76 73 73 73
59 58 59 58 57 60 61 62 63 64 64 64 64 65 65 66 66 67 63 62 63 63 61 60 57 57 58 58 59 59 59 60 61 62 61 60 60 60 62 64 64 67 68 69 70 70 71 71 71 70 72 72 72 72 73 74 74 74 74 74 74 75 75 74 75 75 76 75 75 75 75 75 75 76 75 75 74 74 74 75 75 75 75 75 75 75 75 75 75 75 75 75 75 76 74 70 69
65 58 57 55 58 60 61 64 63 64 65 65 65 65 65 66 66 66 64 62 63 65 62 60 57 58 58 58 58 59 59 60 61 62 60 60 60 60 62 65 65 66 66 70 70 70 71 71 69 72 73 72 72 73 73 73 74 74 73 74 74 75 74 75 75 75 76 76 75 75 75 74 74 74 75 75 74 75 74 74 74 75 75 75 75 75 75 75 75 75 74 75 75 74 73 69 69
61 59 60 56 58 57 62 61 64 64 65 66 65 64 64 67 66 66 64 61 61 64 65 66 59 58 58 58 58 59 59 60 60 61 60 59 59 60 61 65 66 67 68 68 68 70 69 69 67 70 72 72 72 73 74 75 75 75 75 75 74 75 74 74 75 75 75 76 76 75 75 75 75 75 74 74 75 75 75 74 75 76 75 75 76 76 75 75 75 74 74 74 73 74 72 67 67
58 58 57 55 54 57 61 61 64 63 65 65 64 66 67 65 65 66 64 64 65 66 66 66 59 59 58 58 58 58 59 59 60 60 59 57 58 59 61 63 67 66 68 69 69 69 69 69 68 69 72 73 73 73 73 74 73 75 75 75 74 74 75 75 75 75 75 76 76 76 75 75 75 75 74 75 75 75 75 75 75 76 75 75 76 75 75 76 76 75 74 73 75 74 67 68 69
61 59 55 54 54 56 58 60 63 64 65 65 67 67 66 66 64 67 65 67 67 67 66 60 59 59 58 58 58 58 59 59 59 59 58 57 57 59 62 62 64 65 67 67 67 68 68 66 68 69 72 72 72 72 73 74 75 74 74 75 75 75 75 76 76 75 75 75 75 75 76 75 75 75 74 75 74 75 74 75 75 77 76 76 77 78 74 75 74 76 76 75 73 67 63 69 63
54 56 53 53 51 50 51 59 60 63 64 65 67 65 65 66 65 66 66 66 67 67 67 60 58 58 57 57 57 58 59 58 58 58 58 57 57 59 61 63 64 65 65 65 66 65 65 66 67 68 71 72 72 72 71 72 74 74 73 74 74 75 76 76 75 75 76 76 75 75 75 74 73 73 73 73 74 75 75 75 76 76 75 75 75 76 76 75 76 76 76 73 76 72 70 68 70
49 52 53 52 53 53 47 61 59 63 65 65 65 65 66 67 68 66 66 67 67 67 66 64 58 56 56 56 56 57 58 57 58 57 56 56 56 57 59 61 62 63 64 64 64 65 65 65 66 67 69 72 72 72 77 72 75 75 73 72 73 75 74 74 74 74 76 73 75 74 74 74 75 73 72 73 75 73 74 74 74 75 77 77 77 74 77 77 76 75 76 73 70 72 75 72 71
50 51 52 55 52 48 44 44 62 62 62 65 65 65 66 68 65 62 67 68 68 67 66 62 59 56 55 55 55 57 57 57 56 56 56 55 56 56 58 60 61 63 63 63 62 64 66 65 66 67 69 73 72 71 73 72 73 75 74 73 75 73 75 73 74 75 72 74 74 74 73 74 72 71 72 74 75 74 75 74 74 76 73 74 75 75 76 75 75 78 75 75 73 77 73 72 71
46 48 50 50 49 46 43 45 62 61 62 65 65 65 66 66 65 61 65 68 68 66 61 58 56 56 54 53 54 56 57 56 56 55 54 52 54 54 56 59 60 62 62 62 62 64 63 64 66 67 69 71 73 70 72 72 73 73 73 72 73 72 72 72 74 71 72 72 73 74 74 74 73 71 72 72 74 74 75 74 75 75 73 75 74 73 74 74 75 77 77 77 77 77 76 76 73
43 45 45 46 45 43 42 43 57 59 62 64 64 63 62 63 62 64 66 68 68 67 58 57 56 55 55 54 55 56 55 55 54 53 53 55 55 55 55 57 59 60 61 61 62 63 62 64 66 67 68 71 72 69 71 73 71 70 69 70 70 69 72 70 71 71 73 73 74 74 74 74 74 72 73 73 74 75 73 75 73 73 73 74 75 73 73 76 77 76 78 77 78 76 72 73 72
41 43 44 44 43 41 41 50 57 59 61 64 62 54 57 61 62 66 67 68 68 67 58 57 56 55 55 54 54 54 55 55 54 55 55 56 55 55 55 55 59 59 60 61 60 61 62 64 65 66 69 70 71 69 72 71 71 69 70 69 72 71 68 69 70 72 73 74 75 76 76 77 77 74 73 74 74 74 73 73 74 74 73 73 74 76 76 77 76 76 74 76 75 76 71 72 69
34 39 42 42 41 40 43 48 54 59 61 63 59 56 59 62 63 66 67 67 65 65 60 56 56 55 55 54 54 54 54 55 53 54 54 55 54 54 56 55 57 57 60 59 60 61 63 64 64 65 69 70 69 70 69 70 69 68 68 69 69 71 69 69 68 70 71 71 73 75 77 77 78 77 75 75 72 74 72 72 73 74 75 77 77 78 77 77 77 76 78 76 72 74 72 71 71
32 35 36 40 39 40 48 48 56 57 60 60 57 55 59 62 64 66 66 67 67 65 64 58 56 56 55 55 53 54 54 54 53 54 54 54 54 55 55 56 56 57 59 59 61 61 63 63 65 65 68 69 69 71 71 71 69 70 69 70 70 71 68 67 68 67 68 70 72 74 76 77 77 78 78 77 75 73 73 74 73 76 77 77 77 80 77 76 77 77 73 75 77 66 72 72 73
29 31 34 35 38 39 45 54 49 58 57 58 59 59 59 60 64 65 66 68 67 66 66 67 59 59 56 55 54 54 54 53 55 53 54 53 55 55 55 56 57 57 58 58 61 62 64 62 65 64 67 68 70 69 71 72 72 71 70 68 67 71 66 66 67 66 68 69 72 73 76 78 79 78 78 77 78 76 76 74 75 76 78 78 79 79 78 77 78 71 77 75 75 75 70 65 69
26 28 27 30 36 38 38 45 48 54 53 58 58 58 59 61 64 66 68 68 68 67 67 65 67 61 57 56 54 54 54 54 54 55 53 53 55 55 55 59 57 57 60 59 62 61 62 62 63 64 66 67 69 71 72 71 71 73 70 69 73 68 65 65 66 68 70 71 73 75 78 77 78 78 79 80 79 76 75 74 75 76 77 79 80 77 79 76 76 76 79 78 76 76 75 70 67
25 26 26 26 30 37 40 44 52 48 56 55 56 55 56 61 63 65 67 68 67 67 66 67 63 64 58 56 55 55 54 55 54 56 53 53 55 54 56 56 57 56 59 60 62 65 64 64 66 69 66 68 70 73 74 73 72 73 68 70 70 72 72 69 69 71 71 71 72 76 78 77 78 78 79 79 81 78 76 75 76 77 77 79 79 78 76 76 75 76 75 76 78 77 76 73 72
23 24 24 24 27 33 34 49 54 49 50 53 55 53 57 59 62 64 64 67 67 67 68 66 64 65 62 58 56 57 56 54 55 55 54 53 55 54 57 55 57 57 60 63 66 65 67 66 66 70 70 68 71 72 72 71 71 70 67 69 69 71 70 71 71 70 71 73 73 74 77 77 78 78 78 78 79 79 77 76 76 77 77 77 77 74 76 77 75 75 75 71 75 75 75 76 74
22 21 22 22 24 28 33 36 43 48 51 50 54 53 57 58 62 63 64 66 67 66 66 66 67 66 66 64 58 57 57 54 55 55 55 55 55 54 58 57 58 58 62 63 63 63 63 64 68 69 69 71 72 72 71 70 69 70 70 67 68 68 72 71 68 70 71 72 73 75 77 75 78 77 78 78 77 78 78 78 78 77 77 77 76 76 76 74 77 76 76 79 73 76 75 73 70
19 18 16 20 23 26 34 37 45 45 51 50 51 50 50 54 60 62 63 65 66 66 66 65 64 64 65 64 62 59 57 57 55 56 54 56 54 55 58 57 60 57 62 62 64 64 65 64 67 67 69 71 72 71 72 71 71 70 69 67 67 68 71 72 71 72 71 72 76 77 77 75 77 78 78 78 77 78 78 77 77 78 79 79 77 77 76 76 77 76 75 76 77 75 77 68 68
19 18 21 22 24 27 33 41 43 44 46 48 49 50 49 55 57 61 62 62 63 63 63 63 64 65 66 66 66 61 57 57 55 55 55 56 55 57 58 57 57 57 60 60 64 64 65 67 70 70 69 70 71 71 73 73 72 73 69 68 67 68 69 70 69 72 71 72 73 75 78 77 77 77 78 78 76 77 78 78 78 78 78 77 78 77 77 77 79 74 76 77 75 74 76 74 73
17 20 23 24 28 28 32 40 40 44 41 47 50 48 49 53 56 58 61 62 63 65 65 68 68 68 65 66 64 63 57 59 56 56 54 55 55 58 58 58 58 57 61 60 62 64 64 70 71 72 71 70 72 73 73 72 72 74 74 75 72 72 72 74 74 73 73 71 71 73 77 77 76 74 75 75 77 77 77 78 77 76 79 79 80 79 77 77 77 80 74 75 75 70 69 71 70
20 25 26 29 29 29 33 31 31 37 39 48 48 45 45 50 52 57 58 62 62 65 67 67 69 67 66 67 66 63 59 59 57 56 55 55 55 57 59 60 57 58 59 61 62 63 63 67 71 72 72 71 72 73 74 75 74 74 75 75 75 75 74 74 73 72 71 73 71 73 74 76 76 75 74 75 76 78 78 78 78 78 77 78 77 78 79 73 75 74 75 77 75 74 72 70 72
18 24 27 28 29 31 30 32 29 30 35 35 50 47 43 49 49 50 53 61 61 63 65 66 68 68 66 66 68 66 63 61 59 57 56 55 56 58 60 60 58 58 60 61 61 62 64 67 70 73 72 72 71 73 75 75 75 74 76 75 74 75 73 73 72 71 70 71 69 70 73 72 73 74 75 76 75 77 78 78 78 76 76 80 77 77 77 76 75 73 75 74 75 76 76 73 68
16 22 29 30 27 29 31 31 30 31 32 33 34 40 43 47 50 50 51 56 61 63 63 65 66 67 66 64 65 63 60 61 60 58 57 56 58 57 60 60 58 58 59 60 61 63 65 68 71 71 72 73 72 73 74 75 75 75 75 72 72 72 72 72 75 71 71 72 72 71 73 72 75 73 72 75 76 77 78 78 78 78 77 77 77 78 76 72 69 72 73 76 77 80 77 77 74
18 27 28 29 29 27 26 28 29 30 29 30 33 32 42 49 48 48 46 51 60 61 61 61 65 65 64 64 64 65 62 61 62 62 58 57 59 59 59 59 58 58 59 60 60 62 68 71 71 72 73 73 73 73 74 75 75 75 75 73 73 72 69 72 73 73 71 73 73 71 72 72 74 75 74 77 77 76 77 78 78 77 78 75 78 78 76 74 77 76 77 77 79 78 78 76 75
24 26 20 24 24 22 25 29 29 29 28 29 28 30 32 39 48 45 46 51 55 58 58 60 63 63 63 63 64 65 67 62 62 60 59 58 59 60 60 59 57 58 58 60 60 63 68 70 72 73 73 73 74 74 74 75 76 75 74 72 74 73 72 72 72 73 74 73 74 74 75 73 76 77 75 76 76 77 78 77 78 79 77 77 76 76 75 74 74 76 77 79 79 78 78 77 77
24 22 20 17 18 20 29 30 29 30 30 30 30 27 30 49 45 46 46 53 53 58 58 57 59 62 63 63 65 66 66 68 62 60 60 60 59 60 60 59 58 57 58 61 60 61 64 70 72 73 73 73 73 74 75 75 75 75 74 74 73 73 73 74 73 75 75 76 74 75 77 78 72 76 75 76 78 76 77 78 76 75 76 75 75 77 74 75 77 77 76 75 78 77 80 79 76
24 19 23 22 19 21 27 31 32 31 31 31 28 26 26 42 43 45 46 52 54 56 60 61 60 60 62 64 65 66 67 65 64 63 62 61 61 62 62 60 59 57 59 60 59 61 63 67 71 72 73 73 74 74 75 74 75 75 74 74 73 73 73 73 75 74 75 75 74 73 76 78 74 74 74 76 76 75 76 78 73 74 74 77 77 77 76 72 71 73 73 77 77 78 78 78 75
22 19 23 24 27 27 27 26 31 30 28 30 27 26 25 27 42 48 50 51 52 54 56 57 59 59 61 62 62 65 67 65 67 65 65 64 66 63 63 64 60 59 58 59 59 61 64 68 70 72 74 74 74 73 74 73 73 74 73 74 74 74 73 71 73 73 74 74 73 74 76 76 77 73 74 74 73 72 76 76 76 75 78 77 77 78 76 74 74 75 77 78 79 77 78 78 76
23 22 22 23 27 27 26 28 26 26 27 29 26 26 25 34 48 48 50 51 53 53 54 54 57 60 60 60 61 62 65 65 68 68 68 66 63 63 65 65 66 66 64 62 59 60 64 68 71 72 73 74 74 74 74 73 73 73 73 73 74 75 74 74 73 74 74 74 74 74 76 76 78 77 74 72 71 72 76 77 76 78 77 78 80 79 78 76 78 76 77 74 77 77 77 77 77
24 24 25 24 23 25 26 26 25 25 24 25 25 25 29 46 51 53 51 53 54 54 56 56 57 59 62 62 61 61 63 65 67 68 67 68 65 64 65 66 65 65 62 62 61 63 65 67 71 71 73 74 74 75 74 74 73 73 74 73 74 75 74 74 73 72 71 74 75 74 72 72 76 74 72 74 70 70 73 75 77 77 79 78 79 79 78 77 78 80 78 78 74 79 78 77 78
25 26 24 24 26 23 23 22 22 22 24 22 25 24 43 41 48 50 54 52 52 52 52 56 57 57 59 60 61 61 62 64 67 68 68 68 66 66 64 65 65 64 65 63 62 65 68 69 72 73 73 73 74 75 75 75 72 72 73 73 73 73 73 73 73 73 73 72 70 71 74 72 72 73 76 76 76 74 74 75 76 77 78 79 79 79 76 78 78 78 78 78 80 77 77 77 77
23 26 26 21 22 26 19 21 21 21 20 21 24 31 41 47 50 51 50 50 53 52 52 53 59 60 61 62 61 61 63 65 66 66 65 65 67 69 67 65 65 66 67 64 64 68 66 70 72 73 73 73 73 75 75 75 74 72 73 73 73 74 74 72 75 75 75 72 73 73 74 76 73 75 75 76 74 75 75 75 75 75 78 76 78 78 78 77 78 77 78 78 77 74 76 75 77
24 23 23 20 22 21 24 22 18 20 20 20 26 44 46 48 48 49 49 49 50 52 53 54 58 58 59 60 61 62 65 67 68 68 67 66 67 67 68 68 67 66 65 65 70 71 71 71 71 73 74 72 73 75 74 74 75 73 73 73 72 72 71 71 69 70 66 69 73 72 72 70 72 75 73 73 73 76 76 75 74 72 76 77 77 78 77 78 79 78 76 77 76 73 77 78 77
18 20 20 23 22 21 25 17 24 17 15 19 33 41 42 45 45 54 49 49 50 51 52 54 55 59 60 60 61 62 63 65 67 69 69 69 68 67 67 66 65 66 66 65 71 72 72 72 72 72 73 73 72 72 72 73 74 73 73 73 72 71 69 68 69 69 67 69 71 72 70 71 70 68 69 68 73 73 76 76 76 75 74 74 75 75 77 77 78 78 77 78 78 77 77 79 79
18 18 21 19 21 22 26 23 19 16 13 16 25 39 40 45 45 48 50 50 51 53 52 53 53 53 55 58 60 63 63 65 66 67 69 69 68 69 70 69 66 68 68 68 71 70 71 71 72 70 72 72 71 71 72 73 73 71 71 71 71 71 70 69 69 70 70 68 66 68 67 69 68 72 75 75 74 72 74 75 76 74 75 75 75 74 76 77 77 76 76 77 77 78 77 78 79
18 19 17 19 19 19 22 21 24 25 18 13 15 37 41 43 49 52 51 55 51 51 53 52 53 53 55 56 58 62 63 65 65 66 68 69 69 70 68 68 68 70 71 72 72 71 71 73 73 73 71 72 73 71 72 72 71 71 70 72 73 73 73 71 70 71 68 67 67 67 67 65 68 68 69 72 72 71 72 72 71 70 70 71 72 72 73 76 76 75 74 73 74 77 76 76 75
16 16 17 18 18 19 19 18 19 22 24 17 17 42 43 44 50 47 49 50 52 52 52 53 53 55 55 56 58 59 64 64 66 66 66 66 68 69 70 71 73 72 72 70 69 70 71 72 72 72 72 72 72 72 70 71 72 72 72 72 71 71 70 69 67 68 68 68 67 68 66 65 69 68 68 68 71 72 73 72 71 72 69 72 74 73 73 75 76 76 76 76 75 77 76 76 76
15 16 17 17 17 19 17 16 14 18 22 25 19 41 45 45 47 47 46 47 49 51 51 52 53 56 57 57 58 59 60 61 63 64 65 67 68 70 70 71 71 72 72 71 71 73 72 70 71 71 72 73 73 72 70 71 70 70 69 71 71 70 70 70 67 66 67 67 66 67 68 68 65 68 68 66 70 68 71 71 70 71 72 71 74 75 70 72 74 75 74 71 74 76 76 76 76